Weather History for Kodiak, AK

Change the Weather History Date:

Thursday, July 11, 2013

  Actual Average Record
Temperature  
Mean Temperature 59 °F 54 °F  
Max Temperature 67 °F 59 °F 81 °F (1993)
Min Temperature 51 °F 49 °F 40 °F (1956)
Degree Days  
Heating Degree Days 6 11  
Month to date heating degree days 123 129  
Since 1 June heating degree days 454 590  
Since 1 July heating degree days 123 129  
Cooling Degree Days 0    
Month to date cooling degree days 0  
Year to date cooling degree days 3  
Since 1 June cooling degree days 3  
Growing Degree Days 8 (Base 50)    
Moisture  
Dew Point 49 °F    
Average Humidity 0    
Maximum Humidity 0    
Minimum Humidity 0    
Precipitation  
Precipitation 0.00 in 0.18 in 1.81 in (1949)
Month to date precipitation 1.04 1.82  
Year to date precipitation 30.59 39.12  
Snow  
Snow 0.00 in 0.00 in 0.00 in (2014)
Month to date snowfall 0.0 0.0  
Since 1 June snowfall 0.0 0.0  
Since 1 July snowfall 0.0 0.0  
Snow Depth 0.00 in    
Sea Level Pressure  
Sea Level Pressure 29.96 in    
Wind  
Wind Speed 0 mph (North)    
Max Wind Speed 12 mph    
Max Gust Speed 14 mph    
Visibility 10 miles    
Events      
T = Trace of Precipitation, MM = Missing Value Source: NWS Daily Summary

Daily Weather History Graph

Daily Weather History Graph

Search for Another Location

Airport:

Trip Planner

Search our weather history database for the weather conditions in past years. The results will help you decide how hot, cold, wet, or windy it might be!

Date:

Astronomy

Jul. 11, 2013 Rise Set
Actual Time 5:26 AM AKDT 11:03 PM AKDT
Civil Twilight 4:21 AM AKDT 12:08 AM AKDT
Nautical Twilight 2:47 AM AKDT 1:43 AM AKDT
Astronomical Twilight Sun does not rise Sun does not rise
Moon 9:55 AM AKDT (7/11) 11:41 PM AKDT (7/11)
Length of Visible Light 19h 46m
Length of Day
17h 36m
Waxing Crescent, 11% of the Moon is Illuminated
Jul 11
Waxing Crescent
Jul 15
First Quarter
Jul 22
Full
Jul 29
Last Quarter
Aug 6
New

Hourly Weather History & Observations

Time (AKDT) Temp. Dew Point Humidity Pressure Visibility Wind Dir Wind Speed Gust Speed Precip Events Conditions
12:53 AM 57.9 °F 48.9 °F 72% 30.00 in 10.0 mi West 9.2 mph - N/A   Mostly Cloudy
1:53 AM 57.9 °F 48.9 °F 72% 29.99 in 10.0 mi West 8.1 mph - N/A   Mostly Cloudy
2:53 AM 55.9 °F 48.0 °F 75% 29.98 in 10.0 mi Variable 3.5 mph - N/A   Mostly Cloudy
3:53 AM 55.9 °F 46.9 °F 72% 29.98 in 10.0 mi West 3.5 mph - N/A   Scattered Clouds
4:53 AM 52.0 °F 46.0 °F 80% 29.97 in 10.0 mi West 3.5 mph - N/A   Scattered Clouds
5:53 AM 51.1 °F 46.0 °F 83% 29.97 in 10.0 mi West 6.9 mph - N/A   Scattered Clouds
6:53 AM 55.0 °F 48.0 °F 77% 29.96 in 10.0 mi West 6.9 mph - N/A   Partly Cloudy
7:53 AM 60.1 °F 48.9 °F 67% 29.96 in 10.0 mi Calm Calm - N/A   Partly Cloudy
8:53 AM 64.9 °F 48.9 °F 56% 29.96 in 10.0 mi NW 4.6 mph - N/A   Partly Cloudy
9:53 AM 66.9 °F 50.0 °F 54% 29.95 in 10.0 mi Calm Calm - N/A   Partly Cloudy
10:53 AM 59.0 °F 50.0 °F 72% 29.95 in 10.0 mi ENE 5.8 mph - N/A   Partly Cloudy
11:53 AM 62.1 °F 48.9 °F 62% 29.95 in 10.0 mi East 5.8 mph - N/A   Partly Cloudy
12:53 PM 63.0 °F 48.0 °F 58% 29.96 in 10.0 mi ENE 4.6 mph - N/A   Partly Cloudy
1:53 PM 63.0 °F 48.0 °F 58% 29.96 in 10.0 mi NE 5.8 mph - N/A   Partly Cloudy
2:53 PM 62.1 °F 48.9 °F 62% 29.96 in 10.0 mi ENE 6.9 mph - N/A   Scattered Clouds
3:53 PM 63.0 °F 48.0 °F 58% 29.95 in 10.0 mi NE 5.8 mph - N/A   Scattered Clouds
4:53 PM 64.0 °F 48.9 °F 58% 29.95 in 10.0 mi NE 10.4 mph - N/A   Scattered Clouds
5:53 PM 64.9 °F 48.9 °F 56% 29.95 in 10.0 mi NE 9.2 mph - N/A   Scattered Clouds
6:53 PM 66.9 °F 50.0 °F 54% 29.94 in 10.0 mi NE 8.1 mph - N/A   Scattered Clouds
7:53 PM 64.0 °F 51.1 °F 63% 29.94 in 10.0 mi NE 6.9 mph - N/A   Mostly Cloudy
8:53 PM 64.9 °F 51.1 °F 61% 29.94 in 10.0 mi NNE 8.1 mph - N/A   Mostly Cloudy
9:53 PM 64.9 °F 50.0 °F 58% 29.94 in 10.0 mi NE 3.5 mph - N/A   Mostly Cloudy
10:53 PM 62.1 °F 52.0 °F 70% 29.95 in 10.0 mi NW 4.6 mph - N/A   Mostly Cloudy
11:53 PM 57.9 °F 51.1 °F 78% 29.96 in 10.0 mi Calm Calm - N/A   Mostly Cloudy